Satellite: NOAA-17
Catalog number: 27453
Epoch time:      11020.36544155
Element set:     154
Inclination:      098.4020 deg
RA of node:       066.7198 deg
Eccentricity:    0.0011095
Arg of perigee:   218.8502 deg
Mean anomaly:     141.1885 deg
Mean motion:   14.24229939 rev/day
Decay rate:       2.80e-06 rev/day^2
Epoch rev:           44561
Checksum:              291

Satellite: NOAA-18
Catalog number: 28654
Epoch time:      11020.44004220
Element set:     639
Inclination:      098.9784 deg
RA of node:       331.3703 deg
Eccentricity:    0.0014548
Arg of perigee:   158.0712 deg
Mean anomaly:     202.1096 deg
Mean motion:   14.11426896 rev/day
Decay rate:      -1.69e-06 rev/day^2
Epoch rev:           29208
Checksum:              293

Satellite: NOAA-19
Catalog number: 33591
Epoch time:      11020.40468848
Element set:     834
Inclination:      098.8126 deg
RA of node:       323.1558 deg
Eccentricity:    0.0014675
Arg of perigee:   037.2972 deg
Mean anomaly:     322.9220 deg
Mean motion:   14.11121318 rev/day
Decay rate:        5.9e-07 rev/day^2
Epoch rev:           10054
Checksum:              284

/EX
SB KEPS @ AMSAT  $ORB11020.M
Orbital Elements  11020.MISC

HR AMSAT ORBITAL ELEMENTS FOR MANNED AND MISCELLANEOUS SATELLITES
FROM WA5QGD FORT WORTH,TX January 20, 2011
Send Subscribe/unsubscribe to KEPS at http://www.amsat.org/mailman/listinfo/kep
BID: ORB11020.M
TO ALL RADIO AMATEURS BT

Satellite: HUBBLE
Catalog number: 20580
Epoch time:      11019.13656013
Element set:     703
Inclination:      028.4721 deg
RA of node:       269.9148 deg
Eccentricity:    0.0003108
Arg of perigee:   336.0472 deg
Mean anomaly:     023.9942 deg
Mean motion:   15.01143351 rev/day
Decay rate:       4.81e-06 rev/day^2
Epoch rev:           93723
Checksum:              261

Satellite: ISS
Catalog number: 25544
Epoch time:      11020.86512223
Element set:     682
Inclination:      051.6428 deg
RA of node:       196.2115 deg
Eccentricity:    0.0004490
Arg of perigee:   201.0557 deg
Mean anomaly:     314.0403 deg
Mean motion:   15.72063951 rev/day
Decay rate:      9.632e-05 rev/day^2
Epoch rev:           69771
Checksum:              269

Satellite: CO-58
Catalog number: 28895
Epoch time:      11019.69431497
Element set:    0781
Inclination:      097.9878 deg
RA of node:       261.6371 deg
Eccentricity:    0.0017504
Arg of perigee:   330.1414 deg
Mean anomaly:     029.8818 deg
Mean motion:   14.59996539 rev/day
Decay rate:       2.44e-06 rev/day^2
Epoch rev:           27857
Checksum:              368

Satellite: FALCON
Catalog number: 30776
Epoch time:      11020.83927563
Element set:       4
Inclination:      035.4321 deg
RA of node:       162.4981 deg
Eccentricity:    0.0001843
Arg of perigee:   303.8067 deg
Mean anomaly:     056.2475 deg
Mean motion:   15.04071727 rev/day
Decay rate:       6.04e-06 rev/day^2
Epoch rev:           21284
Checksum:              265

Satellite: MAST
Catalog number: 31126
Epoch time:      11019.63682982
Element set:    0064
Inclination:      097.9118 deg
RA of node:       055.1443 deg
Eccentricity:    0.0093549
Arg of perigee:   273.3565 deg
Mean anomaly:     085.6930 deg
Mean motion:   14.53665699 rev/day
Decay rate:       1.49e-06 rev/day^2
Epoch rev:           19950
Checksum:              329

Satellite: CAPE1
Catalog number: 31130
Epoch time:      11019.55185013
Element set:    0086
Inclination:      097.9143 deg
RA of node:       052.0665 deg
Eccentricity:    0.0101705
Arg of perigee:   283.1641 deg
Mean anomaly:     075.8252 deg
Mean motion:   14.52281016 rev/day
Decay rate:       1.92e-06 rev/day^2
Epoch rev:           19906
Checksum:              264

Satellite: COMPASS
Catalog number: 32787
Epoch time:      11019.29351840
Element set:    0887
Inclination:      097.8700 deg
RA of node:       085.7831 deg
Eccentricity:    0.0014892
Arg of perigee:   304.6560 deg
Mean anomaly:     055.3208 deg
Mean motion:   14.82115110 rev/day
Decay rate:       5.49e-06 rev/day^2
Epoch rev:           14750
Checksum:              296

Satellite: AAUSAT2
Catalog number: 32788
Epoch time:      11019.61214415
Element set:    0877
Inclination:      097.8684 deg
RA of node:       086.2760 deg
Eccentricity:    0.0014505
Arg of perigee:   304.8113 deg
Mean anomaly:     055.1814 deg
Mean motion:   14.82276867 rev/day
Decay rate:       7.79e-06 rev/day^2
Epoch rev:           14756
Checksum:              324

Satellite: DO-64
Catalog number: 32789
Epoch time:      11019.72595145
Element set:    0894
Inclination:      097.8769 deg
RA of node:       087.1415 deg
Eccentricity:    0.0014660
Arg of perigee:   302.0394 deg
Mean anomaly:     057.9406 deg
Mean motion:   14.82550321 rev/day
Decay rate:       2.82e-06 rev/day^2
Epoch rev:           14758
Checksum:              329

Satellite: CO-66
Catalog number: 32791
Epoch time:      11019.21451238
Element set:    0878
Inclination:      097.8699 deg
RA of node:       085.6850 deg
Eccentricity:    0.0015390
Arg of perigee:   304.0069 deg
Mean anomaly:     055.9722 deg
Mean motion:   14.81860639 rev/day
Decay rate:       6.11e-06 rev/day^2
Epoch rev:           14744
Checksum:              329

